Location: ?????????
(54.7630°N, 39.4991°E)
Time: 09:09:18
(UTC+00:00)

Okean 1 Rocket - Pass Details

Date: 14 April 2026
Orbit: 601 x 625 km, 82.5° (Epoch: 9 May)

Event Time Altitude Azimuth Distance (km) Brightness Sun altitude
Exits shadow 20:16:46 26° 72° (ENE) 1,197 4.5 -24.1°
Drops below altitude 10° 20:19:45 10° 31° (NNE) 1,966 6.2 -24.3°
Sets 20:22:13 0° 19° (NNE) 2,878 7.3 -24.4°
